TimeMST,TemperatureF,Dew PointF,Humidity,Sea Level PressureIn,VisibilityMPH,Wind Direction,Wind SpeedMPH,Gust SpeedMPH,PrecipitationIn,Events,Conditions,WindDirDegrees,DateUTC
12:53 AM,19.0,15.1,85,30.11,10.0,WSW,13.8,-,N/A,,Clear,240,2012-03-03 07:53:00
1:53 AM,19.0,12.0,74,30.09,10.0,West,13.8,-,N/A,,Clear,270,2012-03-03 08:53:00
2:53 AM,19.0,10.9,71,30.09,10.0,West,13.8,-,N/A,,Clear,260,2012-03-03 09:53:00
3:53 AM,21.0,10.9,65,30.09,10.0,West,15.0,-,N/A,,Overcast,260,2012-03-03 10:53:00
4:53 AM,21.0,10.9,65,30.10,10.0,WSW,12.7,-,N/A,,Mostly Cloudy,250,2012-03-03 11:53:00
5:53 AM,21.0,12.0,68,30.12,10.0,WSW,12.7,-,N/A,,Overcast,250,2012-03-03 12:53:00
6:53 AM,23.0,10.0,58,30.13,10.0,West,15.0,-,N/A,,Overcast,270,2012-03-03 13:53:00
7:53 AM,26.1,9.0,49,30.15,10.0,WNW,21.9,-,N/A,,Mostly Cloudy,300,2012-03-03 14:53:00
8:53 AM,30.9,9.0,40,30.14,10.0,NW,20.7,28.8,N/A,,Clear,310,2012-03-03 15:53:00
9:53 AM,35.1,9.0,34,30.12,10.0,NNW,32.2,39.1,N/A,,Mostly Cloudy,330,2012-03-03 16:53:00
10:53 AM,36.0,9.0,33,30.11,10.0,NNW,31.1,41.4,N/A,,Overcast,330,2012-03-03 17:53:00
11:53 AM,39.9,9.0,28,30.08,10.0,NNW,31.1,42.6,N/A,,Mostly Cloudy,330,2012-03-03 18:53:00
12:53 PM,42.1,10.0,27,30.05,10.0,NNW,29.9,44.9,N/A,,Partly Cloudy,330,2012-03-03 19:53:00
1:53 PM,43.0,10.0,26,30.02,10.0,NNW,35.7,42.6,N/A,,Clear,330,2012-03-03 20:53:00
2:53 PM,44.1,10.9,26,30.01,10.0,NNW,38.0,48.3,N/A,,Clear,330,2012-03-03 21:53:00
3:53 PM,43.0,12.0,28,30.00,10.0,NNW,28.8,39.1,N/A,,Clear,340,2012-03-03 22:53:00
4:53 PM,41.0,14.0,33,30.00,10.0,NNW,18.4,-,N/A,,Overcast,330,2012-03-03 23:53:00
5:53 PM,39.9,16.0,38,30.00,10.0,NNW,13.8,-,N/A,,Overcast,340,2012-03-04 00:53:00
6:29 PM,39.2,15.8,39,29.94,10.0,West,8.1,-,N/A,,Overcast,270,2012-03-04 01:29:00
6:53 PM,37.9,15.1,39,30.01,10.0,SW,6.9,-,N/A,,Overcast,220,2012-03-04 01:53:00
7:53 PM,37.0,17.1,44,30.00,10.0,SW,11.5,-,N/A,,Overcast,220,2012-03-04 02:53:00
8:53 PM,33.1,19.0,56,29.99,10.0,WSW,12.7,-,N/A,,Scattered Clouds,240,2012-03-04 03:53:00
9:53 PM,32.0,19.0,59,29.98,10.0,WSW,12.7,-,N/A,,Clear,250,2012-03-04 04:53:00
10:53 PM,32.0,19.9,61,29.99,10.0,West,18.4,-,N/A,,Mostly Cloudy,270,2012-03-04 05:53:00
11:53 PM,32.0,21.0,64,29.98,10.0,West,12.7,-,N/A,,Overcast,280,2012-03-04 06:53:00